Regional Weather Roundup
Issued by NWS Portland, ME

Home | Current Version | Previous Version | Text Only | Print | Product List | Glossary On
Versions: 1 2 3 4 5 6 7 8 9 10 11 12 13 14 15 16 17 18 19 20 21 22 23 24 25 26 27 28 29 30 31 32 33 34 35 36 37 38 39 40 41 42 43 44 45 46 47 48 49 50
000
ASUS41 KGYX 012310
RWRGYX
WEATHER ROUNDUP FOR MAINE AND NEW HAMPSHIRE
NATIONAL WEATHER SERVICE GRAY ME
600 PM EST SUN MAR 01 2015

MEZ002-005-006-010-012-015-018-020-021-024-026-027-029-020000-
MAINE

CITY           SKY/WX    TMP DP  RH WIND       PRES   REMARKS
PORTLAND       CLOUDY    29  14  53 S9        30.32F
SANFORD        CLOUDY    25  14  63 SW7       30.31F
BAR HARBOR     CLOUDY    28  23  80 S10       30.34F WCI  19
WISCASSET      CLOUDY    28  16  60 SW9G17    30.34F
ROCKLAND       CLOUDY    28  19  69 SW9       30.34F
FRYEBURG       CLOUDY    27  10  49 SW6       30.27F
LEWISTONAUBURN CLOUDY    27  10  50 S7        30.29F
AUGUSTA        MOCLDY    25  10  53 S8        30.30F
WATERVILLE     MOCLDY    27  10  50 S6        30.28F
BANGOR         CLOUDY    28  16  60 S9        30.30F
GREENVILLE       N/A     21   6  52 S8        30.16F
MILLINOCKET    CLOUDY    28   9  44 VRB7      30.27F
HOULTON        CLOUDY    25   3  38 S5        30.26F
PRESQUE ISLE   CLOUDY    25   3  39 S10       30.24S WCI  15
FRENCHVILLE    CLOUDY    23   2  40 S7        30.17F
CARIBOU        CLOUDY    24   4  42 S12       30.22F WCI  13
$$

NHZ002-005-008-009-011-012-014-020000-
NEW HAMPSHIRE

CITY           SKY/WX    TMP DP  RH WIND       PRES   REMARKS
PORTSMOUTH     LGT SNOW  26  20  79 S7        30.31F
ROCHESTER      LGT SNOW  25  20  81 S5        30.30F
NASHUA         LGT SNOW  27  21  80 CALM      30.33F FOG
MANCHESTER     LGT SNOW  25  22  88 S8        30.30F FOG
CONCORD        LGT SNOW  24  21  88 S7        30.30F FOG
LACONIA        CLOUDY    25  18  74 S10       30.25F WCI  15
PLYMOUTH       FLURRIES  27  20  76 CALM      30.27F
BERLIN         CLOUDY    24  12  60 SE8       30.17F
WHITEFIELD     CLOUDY    26  14  60 SW3       30.18F
JAFFREY        LGT SNOW  21  17  84 S8        30.25F FOG
KEENE          MOCLDY    25  19  80 S5        30.28F
LEBANON        FLURRIES  24  18  77 S6        30.24F
MT WASHINGTON  SNOW       9   9 100 W47         N/A  VSB 0   WCI -18
$$

VTZ005-007-008-020000-
VERMONT

CITY           SKY/WX    TMP DP  RH WIND       PRES   REMARKS
ST JOHNSBURY     N/A     26  15  63 MISG      30.19F
MONTPELIER     LGT SNOW  22  15  75 S10       30.21F WCI  11
BURLINGTON     CLOUDY    25  15  66 S16G32    30.20F WCI  12
$$

MAZ007-012-024-CTZ003-RIZ002-NYZ038-NYZ072-020000-
SOUTHERN NEW ENGLAND AND NY

CITY           SKY/WX    TMP DP  RH WIND       PRES   REMARKS
BOSTON         LGT SNOW  27  23  85 S9        30.36F FOG
WORCESTER      LGT SNOW  23  20  88 S7        30.26F FOG
NANTUCKET      LGT SNOW  31  25  78 S8        30.39F
PROVIDENCE     SNOW      27  25  92 S5        30.36F VSB 1/2
HARTFORD       LGT SNOW  27  22  81 S7        30.32F VSB 1
ALBANY         LGT SNOW  24  18  77 S8        30.28F VSB 1
NEW YORK CITY  LGT SNOW  26  23  88 SW3       30.34F VSB 3/4
$$

ANZ081-ANZ082-ANZ150-NHZ014-MEZ023>029-020000-
COASTAL MARINE OBSERVATIONS

STATION/POSITION TIME  TEMP    WIND        PRES    WAVE
                       AIR SEA DIR/SP/G            HT/PER
                 (UTC) (F)     (DEG/KT/KT) (MB)    (FT/S)
MOUNT DESERT ROC 2300   32                 1027.3F
MATINICUS ROCK   2300   31     210/ 21/ 24 1027.6F
WELLS            2200   28     230/  7/ 12 1027.6F
ISLE OF SHOALS   2200   28     220/ 20/ 22 1027.7F
JEFFREYS LEDGE   2221      40                N/A     4/ 5
CASHES LEDGE BUO 2250   31 39              1027.3F   4/ 5
$$

.............KEY..............
   WCI - WIND CHILL
   TC  - TEMPERATURE IN CELSIUS
   VSB - VISIBILITY IN MILES
   HX  - HEAT INDEX
   FAIR- INDICATES FEW OR NO CLOUDS BELOW 12,000 FT, WITH NO
         SIGNIFICANT WEATHER AND/OR OBSTRUCTIONS TO VISIBILITY.




USA.gov is the U.S. government's official web portal to all federal, state and local government web resources and services.